Location: Plainartige
(45.6866°N, 1.7993°E)
Time: 12:14:43
(UTC+00:00)

Gurwin Techsat 1B - Pass Details

Date: 03 July 2022
Orbit: 812 x 813 km, 98.8° (Epoch: 10 August)

Event Time Altitude Azimuth Distance (km) Brightness Sun altitude
Rises 02:54:09 0° 11° (N) 3,346 13.0 -10.4°
Reaches altitude 10° 02:56:31 10° 9° (N) 2,410 12.0 -10.2°
Maximum altitude 03:01:46 64° 289° (WNW) 899 8.8 -9.6°
Enters shadow 03:06:59 10° 209° (SSW) 2,389 10.4 -8.9°
